Time,TemperatureF,DewpointF,PressureIn,WindDirection,WindDirectionDegrees,WindSpeedMPH,WindSpeedGustMPH,Humidity,HourlyPrecipIn,Conditions,Clouds,dailyrainin,SoftwareType,DateUTC
2013-09-08 00:08:00,73.3,71.0,29.97,NW,308,0.0,1.0,92,0.00,,,0.00,weatherlink.com 1.10,2013-09-08 04:08:00,
2013-09-08 00:23:00,73.3,71.0,29.97,WNW,285,0.0,0.0,93,0.00,,,0.00,weatherlink.com 1.10,2013-09-08 04:23:00,
2013-09-08 00:39:00,73.0,71.0,29.97,WNW,287,0.0,0.0,92,0.00,,,0.00,weatherlink.com 1.10,2013-09-08 04:39:00,
2013-09-08 00:54:00,73.0,71.0,29.96,NW,304,1.0,3.0,93,0.00,,,0.00,weatherlink.com 1.10,2013-09-08 04:54:00,
2013-09-08 01:09:00,73.1,71.0,29.96,NW,304,0.0,1.0,93,0.00,,,0.00,weatherlink.com 1.10,2013-09-08 05:09:00,
2013-09-08 01:24:00,72.9,71.0,29.95,NW,304,0.0,0.0,93,0.00,,,0.00,weatherlink.com 1.10,2013-09-08 05:24:00,
2013-09-08 01:39:00,72.9,71.0,29.96,NW,304,0.0,0.0,93,0.00,,,0.00,weatherlink.com 1.10,2013-09-08 05:39:00,
2013-09-08 01:54:00,72.8,71.0,29.96,NW,304,0.0,0.0,93,0.00,,,0.00,weatherlink.com 1.10,2013-09-08 05:54:00,
2013-09-08 02:09:00,72.6,71.0,29.95,NW,304,0.0,0.0,93,0.00,,,0.00,weatherlink.com 1.10,2013-09-08 06:09:00,
2013-09-08 02:24:00,72.5,70.0,29.95,NW,304,0.0,0.0,93,0.00,,,0.00,weatherlink.com 1.10,2013-09-08 06:24:00,
2013-09-08 02:39:00,72.3,71.0,29.95,NW,304,0.0,0.0,94,0.00,,,0.00,weatherlink.com 1.10,2013-09-08 06:39:00,
2013-09-08 02:54:00,72.0,70.0,29.95,NW,304,0.0,0.0,94,0.00,,,0.00,weatherlink.com 1.10,2013-09-08 06:54:00,
2013-09-08 03:09:00,71.1,69.0,29.94,NW,304,0.0,0.0,94,0.00,,,0.00,weatherlink.com 1.10,2013-09-08 07:09:00,
2013-09-08 03:24:00,71.7,70.0,29.94,NW,304,0.0,0.0,95,0.00,,,0.00,weatherlink.com 1.10,2013-09-08 07:24:00,
2013-09-08 03:39:00,71.9,71.0,29.93,NW,304,0.0,0.0,95,0.00,,,0.00,weatherlink.com 1.10,2013-09-08 07:39:00,
2013-09-08 03:54:00,72.0,71.0,29.93,NW,304,0.0,0.0,95,0.00,,,0.00,weatherlink.com 1.10,2013-09-08 07:54:00,
2013-09-08 04:09:00,72.1,71.0,29.92,NW,304,0.0,0.0,95,0.00,,,0.00,weatherlink.com 1.10,2013-09-08 08:09:00,
2013-09-08 04:24:00,72.5,71.0,29.92,NW,304,0.0,0.0,95,0.00,,,0.00,weatherlink.com 1.10,2013-09-08 08:24:00,
2013-09-08 04:39:00,72.5,71.0,29.92,NW,304,0.0,0.0,95,0.00,,,0.00,weatherlink.com 1.10,2013-09-08 08:39:00,
2013-09-08 04:54:00,72.4,71.0,29.92,NW,304,0.0,0.0,95,0.00,,,0.00,weatherlink.com 1.10,2013-09-08 08:54:00,
2013-09-08 05:09:00,72.4,71.0,29.92,NW,304,0.0,0.0,95,0.00,,,0.00,weatherlink.com 1.10,2013-09-08 09:09:00,
2013-09-08 05:24:00,72.2,71.0,29.92,NW,304,0.0,0.0,95,0.00,,,0.00,weatherlink.com 1.10,2013-09-08 09:24:00,
2013-09-08 05:39:00,72.1,71.0,29.92,NW,304,0.0,0.0,95,0.00,,,0.00,weatherlink.com 1.10,2013-09-08 09:39:00,
2013-09-08 05:54:00,71.9,71.0,29.92,NW,304,0.0,0.0,95,0.00,,,0.00,weatherlink.com 1.10,2013-09-08 09:54:00,
2013-09-08 06:09:00,71.7,70.0,29.92,NW,304,0.0,0.0,95,0.00,,,0.00,weatherlink.com 1.10,2013-09-08 10:09:00,
2013-09-08 06:24:00,72.3,71.0,29.93,NNW,348,0.0,2.0,96,0.00,,,0.00,weatherlink.com 1.10,2013-09-08 10:24:00,
2013-09-08 06:39:00,72.6,71.0,29.92,NW,319,0.0,4.0,96,0.00,,,0.00,weatherlink.com 1.10,2013-09-08 10:39:00,
2013-09-08 06:54:00,72.5,71.0,29.93,NNE,22,0.0,1.0,95,0.00,,,0.00,weatherlink.com 1.10,2013-09-08 10:54:00,
2013-09-08 07:09:00,72.4,71.0,29.93,North,349,0.0,1.0,95,0.00,,,0.00,weatherlink.com 1.10,2013-09-08 11:09:00,
2013-09-08 07:24:00,72.3,71.0,29.93,NNW,347,0.0,1.0,95,0.00,,,0.00,weatherlink.com 1.10,2013-09-08 11:24:00,
2013-09-08 07:39:00,72.4,71.0,29.93,NW,321,1.0,2.0,95,0.00,,,0.00,weatherlink.com 1.10,2013-09-08 11:39:00,
2013-09-08 07:54:00,73.1,72.0,29.93,North,6,2.0,3.0,95,0.00,,,0.00,weatherlink.com 1.10,2013-09-08 11:54:00,
2013-09-08 08:09:00,74.0,72.0,29.94,North,3,0.0,2.0,94,0.00,,,0.00,weatherlink.com 1.10,2013-09-08 12:09:00,
2013-09-08 08:24:00,75.1,73.0,29.94,North,1,1.0,2.0,93,0.00,,,0.00,weatherlink.com 1.10,2013-09-08 12:24:00,
2013-09-08 08:39:00,76.2,74.0,29.95,NE,39,2.0,6.0,92,0.00,,,0.00,weatherlink.com 1.10,2013-09-08 12:39:00,
2013-09-08 08:54:00,77.0,74.0,29.95,North,360,1.0,7.0,91,0.00,,,0.00,weatherlink.com 1.10,2013-09-08 12:54:00,
2013-09-08 09:10:00,77.9,75.0,29.95,North,11,2.0,7.0,90,0.00,,,0.00,weatherlink.com 1.10,2013-09-08 13:10:00,
2013-09-08 09:25:00,78.3,75.0,29.95,NE,46,6.0,8.0,89,0.00,,,0.00,weatherlink.com 1.10,2013-09-08 13:25:00,
2013-09-08 09:40:00,78.6,75.0,29.95,NNE,23,6.0,6.0,89,0.00,,,0.00,weatherlink.com 1.10,2013-09-08 13:40:00,
2013-09-08 09:55:00,79.4,76.0,29.95,NE,44,4.0,7.0,88,0.00,,,0.00,weatherlink.com 1.10,2013-09-08 13:55:00,
2013-09-08 10:10:00,80.0,76.0,29.95,NE,46,5.0,6.0,87,0.00,,,0.00,weatherlink.com 1.10,2013-09-08 14:10:00,
2013-09-08 10:25:00,80.8,76.0,29.96,NNW,334,2.0,7.0,85,0.00,,,0.00,weatherlink.com 1.10,2013-09-08 14:25:00,
2013-09-08 10:40:00,81.8,77.0,29.96,ENE,78,2.0,5.0,84,0.00,,,0.00,weatherlink.com 1.10,2013-09-08 14:40:00,
2013-09-08 10:55:00,83.2,76.0,29.96,NNE,33,1.0,6.0,80,0.00,,,0.00,weatherlink.com 1.10,2013-09-08 14:55:00,
2013-09-08 11:10:00,85.0,77.0,29.95,NNE,13,6.0,6.0,76,0.00,,,0.00,weatherlink.com 1.10,2013-09-08 15:10:00,
2013-09-08 11:25:00,84.9,75.0,29.95,SE,132,2.0,9.0,72,0.00,,,0.00,weatherlink.com 1.10,2013-09-08 15:25:00,
2013-09-08 11:40:00,86.4,76.0,29.95,NNE,25,5.0,7.0,71,0.00,,,0.00,weatherlink.com 1.10,2013-09-08 15:40:00,
2013-09-08 11:55:00,85.9,75.0,29.95,East,96,2.0,7.0,70,0.00,,,0.00,weatherlink.com 1.10,2013-09-08 15:55:00,
2013-09-08 12:10:00,87.2,75.0,29.95,East,93,1.0,8.0,68,0.00,,,0.00,weatherlink.com 1.10,2013-09-08 16:10:00,
2013-09-08 12:25:00,86.2,74.0,29.94,SE,125,2.0,6.0,68,0.00,,,0.00,weatherlink.com 1.10,2013-09-08 16:25:00,
2013-09-08 12:40:00,86.1,74.0,29.94,NNE,32,4.0,7.0,67,0.00,,,0.00,weatherlink.com 1.10,2013-09-08 16:40:00,
2013-09-08 12:55:00,86.2,73.0,29.93,NW,315,1.0,8.0,65,0.00,,,0.00,weatherlink.com 1.10,2013-09-08 16:55:00,
2013-09-08 13:10:00,87.5,73.0,29.93,North,9,3.0,6.0,63,0.00,,,0.00,weatherlink.com 1.10,2013-09-08 17:10:00,
2013-09-08 13:25:00,88.4,74.0,29.92,East,92,2.0,6.0,63,0.00,,,0.00,weatherlink.com 1.10,2013-09-08 17:25:00,
2013-09-08 13:40:00,88.8,74.0,29.92,NE,37,4.0,7.0,61,0.00,,,0.00,weatherlink.com 1.10,2013-09-08 17:40:00,
2013-09-08 13:55:00,88.4,74.0,29.92,NNE,26,3.0,6.0,62,0.00,,,0.00,weatherlink.com 1.10,2013-09-08 17:55:00,
2013-09-08 14:10:00,89.2,74.0,29.91,ESE,118,2.0,7.0,62,0.00,,,0.00,weatherlink.com 1.10,2013-09-08 18:10:00,
2013-09-08 14:25:00,90.7,73.0,29.90,ENE,63,2.0,6.0,57,0.00,,,0.00,weatherlink.com 1.10,2013-09-08 18:25:00,
2013-09-08 14:40:00,89.7,72.0,29.90,SE,129,1.0,7.0,57,0.00,,,0.00,weatherlink.com 1.10,2013-09-08 18:40:00,
2013-09-08 14:55:00,89.4,74.0,29.89,NW,326,5.0,7.0,60,0.00,,,0.00,weatherlink.com 1.10,2013-09-08 18:55:00,
2013-09-08 15:10:00,89.8,73.0,29.88,NE,37,3.0,7.0,57,0.00,,,0.00,weatherlink.com 1.10,2013-09-08 19:10:00,
2013-09-08 15:25:00,90.5,73.0,29.87,NE,45,3.0,6.0,57,0.00,,,0.00,weatherlink.com 1.10,2013-09-08 19:25:00,
2013-09-08 15:41:00,88.7,71.0,29.87,NNW,328,1.0,5.0,56,0.00,,,0.00,weatherlink.com 1.10,2013-09-08 19:41:00,
2013-09-08 15:56:00,89.9,73.0,29.87,SSE,155,1.0,8.0,57,0.00,,,0.00,weatherlink.com 1.10,2013-09-08 19:56:00,
2013-09-08 16:11:00,90.6,72.0,29.87,North,360,4.0,7.0,55,0.00,,,0.00,weatherlink.com 1.10,2013-09-08 20:11:00,
2013-09-08 16:26:00,90.6,73.0,29.86,ENE,65,5.0,9.0,56,0.00,,,0.00,weatherlink.com 1.10,2013-09-08 20:26:00,
2013-09-08 16:41:00,91.0,72.0,29.86,NNW,333,5.0,9.0,53,0.00,,,0.00,weatherlink.com 1.10,2013-09-08 20:41:00,
2013-09-08 16:56:00,90.5,73.0,29.86,North,11,5.0,6.0,56,0.00,,,0.00,weatherlink.com 1.10,2013-09-08 20:56:00,
2013-09-08 17:11:00,90.8,72.0,29.86,NNW,329,3.0,9.0,54,0.00,,,0.00,weatherlink.com 1.10,2013-09-08 21:11:00,
2013-09-08 17:26:00,90.6,72.0,29.86,NW,307,6.0,8.0,54,0.00,,,0.00,weatherlink.com 1.10,2013-09-08 21:26:00,
2013-09-08 17:41:00,91.1,71.0,29.86,North,4,3.0,5.0,52,0.00,,,0.00,weatherlink.com 1.10,2013-09-08 21:41:00,
2013-09-08 17:56:00,90.4,72.0,29.86,NNW,347,5.0,7.0,54,0.00,,,0.00,weatherlink.com 1.10,2013-09-08 21:56:00,
2013-09-08 18:11:00,90.0,72.0,29.86,NE,49,7.0,8.0,55,0.00,,,0.00,weatherlink.com 1.10,2013-09-08 22:11:00,
2013-09-08 18:26:00,89.3,73.0,29.87,NE,46,8.0,11.0,58,0.00,,,0.00,weatherlink.com 1.10,2013-09-08 22:26:00,
2013-09-08 18:41:00,86.6,74.0,29.87,NNE,12,7.0,10.0,66,0.00,,,0.00,weatherlink.com 1.10,2013-09-08 22:41:00,
2013-09-08 18:56:00,85.8,74.0,29.88,NE,47,1.0,9.0,68,0.00,,,0.00,weatherlink.com 1.10,2013-09-08 22:56:00,
2013-09-08 19:11:00,85.4,73.0,29.88,NE,50,5.0,9.0,67,0.00,,,0.00,weatherlink.com 1.10,2013-09-08 23:11:00,
2013-09-08 19:26:00,84.3,73.0,29.88,NNE,27,4.0,6.0,69,0.00,,,0.00,weatherlink.com 1.10,2013-09-08 23:26:00,
2013-09-08 19:41:00,83.4,73.0,29.88,ENE,70,1.0,5.0,71,0.00,,,0.00,weatherlink.com 1.10,2013-09-08 23:41:00,
2013-09-08 19:56:00,82.9,74.0,29.90,East,98,3.0,9.0,75,0.00,,,0.00,weatherlink.com 1.10,2013-09-08 23:56:00,
2013-09-08 20:11:00,81.0,74.0,29.91,ESE,118,2.0,8.0,79,0.00,,,0.00,weatherlink.com 1.10,2013-09-09 00:11:00,
2013-09-08 20:26:00,79.7,73.0,29.92,ESE,103,2.0,8.0,79,0.00,,,0.00,weatherlink.com 1.10,2013-09-09 00:26:00,
2013-09-08 20:41:00,79.2,73.0,29.93,SE,128,1.0,6.0,81,0.00,,,0.00,weatherlink.com 1.10,2013-09-09 00:41:00,
2013-09-08 20:56:00,78.8,73.0,29.94,SSE,148,0.0,2.0,82,0.00,,,0.00,weatherlink.com 1.10,2013-09-09 00:56:00,
2013-09-08 21:11:00,78.5,73.0,29.94,ESE,115,0.0,2.0,84,0.00,,,0.00,weatherlink.com 1.10,2013-09-09 01:11:00,
2013-09-08 21:26:00,78.2,73.0,29.94,ESE,117,0.0,1.0,85,0.00,,,0.00,weatherlink.com 1.10,2013-09-09 01:26:00,
2013-09-08 21:41:00,78.3,74.0,29.96,SE,127,4.0,4.0,86,0.00,,,0.00,weatherlink.com 1.10,2013-09-09 01:41:00,
2013-09-08 21:56:00,78.4,74.0,29.97,SE,130,1.0,3.0,86,0.00,,,0.00,weatherlink.com 1.10,2013-09-09 01:56:00,
2013-09-08 22:11:00,78.4,74.0,29.98,ESE,116,0.0,1.0,87,0.00,,,0.00,weatherlink.com 1.10,2013-09-09 02:11:00,
2013-09-08 22:26:00,77.7,74.0,29.98,ESE,116,0.0,0.0,87,0.00,,,0.00,weatherlink.com 1.10,2013-09-09 02:26:00,
2013-09-08 22:41:00,77.4,74.0,29.98,ESE,115,0.0,0.0,89,0.00,,,0.00,weatherlink.com 1.10,2013-09-09 02:41:00,
2013-09-08 22:56:00,77.0,74.0,29.98,ESE,116,0.0,0.0,89,0.00,,,0.00,weatherlink.com 1.10,2013-09-09 02:56:00,
2013-09-08 23:11:00,76.7,74.0,29.98,ESE,116,0.0,0.0,90,0.00,,,0.00,weatherlink.com 1.10,2013-09-09 03:11:00,
2013-09-08 23:26:00,76.4,73.0,29.98,ESE,104,0.0,1.0,90,0.00,,,0.00,weatherlink.com 1.10,2013-09-09 03:26:00,
2013-09-08 23:41:00,76.3,73.0,29.98,ESE,105,0.0,1.0,90,0.00,,,0.00,weatherlink.com 1.10,2013-09-09 03:41:00,
2013-09-08 23:56:00,76.3,73.0,29.99,ENE,74,1.0,2.0,90,0.00,,,0.00,weatherlink.com 1.10,2013-09-09 03:56:00,